#timestamp,LO_Frequency,Hit,StdDev 
1645344015.7,286046995.1,N
1645344035.5,286046996.7,N
1645344055.4,286046998.9,N
1645344075.2,286047000.7,N
1645344095.0,286047001.3,N
1645344095.9,286047001.3,N
1645344115.8,286047003.2,N
1645344135.6,286047007.3,N
1645344155.4,286047006.6,N
1645344175.3,286047005.1,N
1645344195.1,286047007.3,N
1645344215.9,286047003.9,N
1645344235.7,286047002.9,N
1645344255.5,286047007.3,N
1645344275.4,286047003.4,N
1645344295.2,286047002.2,N
1645344315.0,286046998.8,N
1645344315.9,286046998.8,N
1645344335.8,286046997.5,N
1645344355.6,286046998.8,N
1645344375.5,286046999.3,N
1645344395.3,286047001.9,N
1645344415.1,286047002.4,N
1645344435.9,286047001.1,N
1645344455.7,286046997.4,N
1645344475.5,286046994.9,N
1645344495.4,286046995.3,N
1645344515.2,286046997.9,N
1645344535.1,286046999.9,N
1645344536.0,286046999.9,N
1645344555.8,286047000.1,N
1645344575.6,286047002.2,N
1645344595.5,286047001.9,N
1645344615.3,286047001.4,N
1645344635.1,286047002.8,N
1645344655.9,286047002.5,N
1645344675.7,286047001.7,N
1645344695.6,286047000.4,N
1645344715.4,286047001.4,N
1645344735.2,286047005.7,N
1645344755.1,286047006.0,N
1645344756.0,286047006.0,N
1645344775.8,286047001.4,N
1645344795.7,286047001.3,N
1645344815.5,286047002.6,N
1645344835.3,286047004.4,N
1645344855.2,286047002.1,N
1645344875.9,286047002.7,N
1645344895.7,286047006.0,N
1645344915.6,286047001.6,N
1645344935.4,286047002.3,N
1645344955.3,286047001.6,N
1645344975.1,286047001.5,N
1645344976.0,286047001.5,N
1645344995.8,286047004.4,N
1645345015.7,286047001.7,N
1645345035.5,286047001.3,N
1645345055.3,286047002.8,N
1645345075.2,286046999.4,N
1645345095.0,286047001.1,N
1645345095.9,286047001.1,N
1645345115.8,286046999.8,N
1645345135.6,286047000.3,N
1645345155.4,286047000.9,N
1645345175.3,286047001.2,N
1645345195.1,286046999.5,N
1645345215.8,286046999.6,N
1645345235.7,286046997.2,N
1645345255.5,286046999.6,N
1645345275.4,286047000.7,N
1645345295.2,286047001.7,N
1645345315.0,286047001.8,N
1645345315.9,286047001.8,N
1645345335.8,286047004.4,N
1645345355.6,286047005.0,N
1645345375.4,286047007.6,Y
1645345395.3,286047002.3,P
1645345415.1,286046999.8,N
1645345435.9,286047000.5,N
1645345455.7,286047001.9,N
1645345475.5,286047003.7,Y
1645345495.4,286047001.6,P
1645345515.2,286047002.5,P
1645345535.0,286047005.5,P
1645345536.0,286047005.5,Y
1645345555.8,286047002.4,P
1645345575.6,286047001.6,P
1645345595.5,286047000.6,N
1645345615.3,286047002.5,Y
1645345635.1,286046999.4,P
1645345655.9,286046997.7,N
1645345675.7,286046996.6,N
1645345695.6,286046999.2,N
1645345715.4,286046997.4,N
1645345735.2,286046998.4,N
1645345755.1,286046999.6,N
1645345756.0,286046999.6,N
1645345775.8,286046996.3,N
1645345795.6,286046993.1,Y
1645345815.5,286046993.7,P
1645345835.3,286046993.3,N
1645345855.2,286046997.9,N
1645345875.9,286046996.8,N
1645345895.7,286046996.3,N
1645345915.6,286046997.5,N
1645345935.4,286046993.3,Y
1645345955.3,286046996.5,P
1645345975.1,286046998.2,P
1645345976.0,286046998.2,N
1645345995.8,286047002.8,Y
1645346015.7,286047007.4,P
1645346035.5,286047007.6,N
1645346055.4,286047001.3,N
1645346075.2,286047001.5,N
1645346095.0,286047001.7,N
1645346095.9,286047001.7,N
1645346115.8,286047001.9,N
1645346135.6,286047004.4,N
1645346155.4,286047000.3,N
1645346175.3,286047000.1,N
1645346195.1,286047001.3,N
1645346215.9,286047005.2,N
1645346235.7,286047006.9,N
1645346255.5,286047009.0,Y
1645346275.4,286047000.3,P
1645346295.2,286047000.5,N
1645346315.1,286047001.8,N
1645346316.0,286047001.8,N
1645346335.8,286047003.8,Y
1645346355.6,286047000.2,P
1645346375.5,286047000.9,N
1645346395.3,286046999.4,N
1645346415.1,286046998.9,N
1645346435.9,286046999.5,N
1645346455.7,286046999.9,N
1645346475.6,286047002.4,N
1645346495.4,286047000.5,N
1645346515.2,286047003.5,Y
1645346535.1,286047005.5,P
1645346536.0,286047005.5,N
1645346555.8,286047006.0,N
1645346575.7,286047004.2,N
1645346595.5,286046998.3,N
1645346615.3,286047000.2,N
1645346635.2,286047005.9,N
1645346655.0,286047002.1,N
1645346655.9,286047002.1,N
1645346675.7,286046999.3,N
1645346695.6,286046999.2,N
1645346715.4,286046998.2,N
1645346735.3,286047000.3,N
1645346755.1,286046998.4,N
1645346756.0,286046998.4,N
1645346775.8,286046998.7,N
1645346795.7,286046998.4,N
1645346815.5,286046999.4,N
1645346835.3,286046999.4,N
1645346855.2,286046998.7,N
1645346875.0,286047001.2,N
1645346875.9,286047001.2,N
1645346895.8,286046998.3,N
1645346915.6,286046996.5,N
1645346935.4,286047001.2,N
1645346955.3,286047000.8,N
1645346975.1,286046999.3,N
1645346995.8,286046996.6,N
1645347015.7,286046997.9,N
1645347035.5,286046998.3,N
1645347055.4,286047001.0,N
1645347075.2,286046998.3,N
1645347095.0,286046999.0,N
1645347095.9,286046999.0,N
1645347115.8,286046998.8,N
1645347135.6,286047000.3,N
1645347155.4,286047002.5,N
1645347175.3,286047000.9,N
1645347195.1,286047001.2,N
1645347215.9,286047003.5,N
1645347235.7,286047003.7,N
1645347255.5,286047004.6,N
1645347275.4,286047007.4,Y
1645347295.2,286047006.8,P
1645347315.1,286047007.6,N
1645347316.0,286047007.6,N
1645347335.8,286047005.0,N
1645347355.6,286047003.2,N
1645347375.5,286047005.4,N
1645347395.3,286047003.6,N
1645347415.1,286047005.0,N
1645347435.9,286047005.1,N
1645347455.7,286047000.1,N
1645347475.6,286047003.6,N
1645347495.4,286047000.1,N
1645347515.2,286046999.0,N
1645347535.1,286047000.9,N
1645347536.0,286047000.9,N
1645347555.8,286047002.8,N
1645347575.7,286046999.8,N
1645347595.5,286047002.8,N
